Location: Cheching
(60.0667°N, 164.2167°W)
Time: 22:10:42
(UTC+00:00)

NOAA 15 - Pass Details

Date: 26 January 2021
Orbit: 798 x 812 km, 98.7° (Epoch: 07 March)

Event Time Altitude Azimuth Distance (km) Brightness Sun altitude
Rises 03:36:23 0° 118° (ESE) 3,314 7.5 -5.2°
Reaches altitude 10° 03:38:58 10° 108° (ESE) 2,389 6.7 -5.5°
Maximum altitude 03:43:25 29° 50° (NE) 1,458 5.4 -6.0°
Drops below altitude 10° 03:47:55 10° 352° (N) 2,408 6.9 -6.5°
Sets 03:50:31 0° 342° (NNW) 3,345 7.7 -6.8°
